Location: Omaha
(41.2590°N, 95.9380°W)
Time: 04:13:55
(UTC-05:00)

Tiangong 1 - Pass Details

Date: 16 October 2017
Orbit: 293 x 320 km, 42.8° (Epoch: 19 October)

Event Time Altitude Azimuth Distance (km) Brightness Sun altitude
Rises 19:22:18 0° 281° (WNW) 2,046 6.5 -8.5°
Reaches altitude 10° 19:24:24 10° 271° (W) 1,210 5.3 -8.9°
Maximum altitude 19:26:52 32° 205° (SSW) 566 2.2 -9.4°
Drops below altitude 10° 19:29:19 10° 139° (SE) 1,192 3.2 -9.9°
Enters shadow 19:29:46 - 136° (SE) 1,370 3.5 -9.9°
